Regional Weather Roundup
Issued by NWS Green Bay, WI

Home | Current Version | Previous Version | Graphics & Text | Print | Product List | Glossary Off
Versions: 1 2 3 4 5 6 7 8 9 10 11 12 13 14 15 16 17 18 19 20 21 22 23 24 25 26 27 28 29 30 31 32 33 34 35 36 37 38 39 40 41 42 43 44 45 46 47 48 49 50

000
ASUS43 KGRB 231811
RWRGRB

NORTH-CENTRAL AND NORTHEAST WISCONSIN REGIONAL WEATHER ROUNDUP
NATIONAL WEATHER SERVICE GREEN BAY WI
100 PM CDT SUN JUL 23 2017

WIZ005-009-010>012-018-019-231900-
NORTH CENTRAL WISCONSIN

CITY           SKY/WX    TMP DP  RH WIND       PRES   REMARKS
IRONWOOD       FOG       57  56  96 N8        29.95R VSB 3/4
MANITOWISH WTR CLOUDY    59  59 100 N6        29.93R
ARBOR VITAE    CLOUDY    62  59  89 N8        29.91S
EAGLE RIVER    CLOUDY    64  59  85 N9        29.90S
LAND O LAKES   CLOUDY    62  58  87 N9        29.93R
RHINELANDER    CLOUDY    68  61  78 VRB7      29.90R
PHILLIPS       CLOUDY    64  60  87 N9        29.91R
ANTIGO         PTSUNNY   76  60  58 N9        29.85S
TOMAHAWK         N/A     69  59  69 NW8       29.89R
MERRILL        MOSUNNY   75  61  61 N10       29.86S
$$

WIZ013-073-231900-
NORTHEAST WISCONSIN

CITY           SKY/WX    TMP DP  RH WIND       PRES   REMARKS
IRON MOUNTAIN  MOSUNNY   73  58  59 N17       29.84R
MARINETTE      PTSUNNY   75  63  66 VRB7      29.80S
OCONTO         MOSUNNY   78  64  62 NW8       29.79S
$$

WIZ017-030-035>037-045-231900-
CENTRAL WISCONSIN

CITY           SKY/WX    TMP DP  RH WIND       PRES   REMARKS
MEDFORD        MOSUNNY   70  60  70 N13       29.88S
WAUSAU         PTSUNNY   75  57  53 NW13      29.83S
MOSINEE        PTSUNNY   79  61  53 N12       29.85S
MARSHFIELD     MOSUNNY   77  57  50 NW10      29.85S
WISC RAPIDS    MOSUNNY   83  59  44 NW16G24   29.85S
STEVENS POINT  MOSUNNY   78  57  48 NW10      29.83S
WAUPACA        SUNNY     84  56  39 NW9       29.81S
SHAWANO        PTSUNNY   79  62  55 NW6       29.80S
CLINTONVILLE   MOSUNNY   79  63  57 NE12      29.80S
WAUTOMA        SUNNY     81  60  48 NW9G18    29.82S
$$

WIZ038-039-048-051-231900-
FOX VALLEY

CITY           SKY/WX    TMP DP  RH WIND       PRES   REMARKS
NWS GREEN BAY  PTSUNNY   76  69  79 N5        29.79F
APPLETON       PTSUNNY   75  57  53 W7        29.80S
OSHKOSH        CLOUDY    82  64  54 W10       29.80F
FOND DU LAC    PTSUNNY   79  58  48 NW10      29.81F
$$

WIZ022-050-052-231900-
EAST CENTRAL WISCONSIN

CITY           SKY/WX    TMP DP  RH WIND       PRES   REMARKS
EPHRAIM        MOCLDY    70  64  81 N7        29.80S
WASHINGTON ISL CLOUDY    66  62  87 N10       29.81R
STURGEON BAY     N/A     72  66  81 N7        29.80F
MANITOWOC      CLOUDY    79  64  60 NW8       29.80S
SHEBOYGAN      CLOUDY    77  67  71 NW9       29.80S
$$

LMZ563-521-522-541>543-231900-
LAKESHORE

STATION/POSITION TIME  TEMP    WIND        PRES    VSBY  WAVE
                       AIR SEA DIR/SP/G                  HT/PER
                 (UTC) (F)     (DEG/KT/KT) (MB)    (MI)  (FT/S)
SHEBOYGAN LKSHOR 1800   77     300/  7/  8 1008.2F
KEWAUNEE LKSHORE 1748   72      80/  4/  5 1008.3F
NORTHPORT PIER   1740   69     340/ 12/ 15 1009.1S
N MID LAKE BUOY  1750   65 68  330/ 17/ 21 1008.9R         1/ 3
S GREEN BAY BUOY 1800   72 75  160/  4/  4 1008.8
SISTER BAY LKSHO 1802   75       0/ 12/ 15   N/A
CHAMBERS ISLAND  1740   72      10/  7/  8 1008.5S
MENOMINEE LKSHOR 1748   73      50/  9/ 13 1008.6S
$$



USA.gov is the U.S. government's official web portal to all federal, state and local government web resources and services.